Bartlesville, OK

5:30 PM CST on February 08, 2016 (GMT -0600)
Bartlesville Municipal

Weather History for KBVO - October, 2012

Change the Weather History Date:

Thursday, October 18, 2012

  Actual Average Record
Temperature  
Mean Temperature 60 °F -  
Max Temperature 69 °F 72 °F 91 °F (2005)
Min Temperature 50 °F 46 °F 22 °F (1948)
Degree Days  
Heating Degree Days 6    
Growing Degree Days 10 (Base 50)    
Moisture  
Dew Point 24 °F    
Average Humidity 28    
Maximum Humidity 50    
Minimum Humidity 16    
Precipitation  
Precipitation 0.00 in - - ()
Sea Level Pressure  
Sea Level Pressure 29.83 in    
Wind  
Wind Speed 6 mph (WNW)    
Max Wind Speed 17 mph    
Max Gust Speed 32 mph    
Visibility 8 miles    
Events      
Averages and records for this station are not official NWS values.
T = Trace of Precipitation, MM = Missing Value Source: NWS Daily Summary

Daily Weather History Graph

Daily Weather History Graph

Search for Another Location

Airport or City:

Trip Planner

Search our weather history database for the weather conditions in past years. The results will help you decide how hot, cold, wet, or windy it might be!

Date:

Astronomy

Oct. 18, 2012 Rise Set
Actual Time 7:34 AM CDT 6:42 PM CDT
Civil Twilight 7:08 AM CDT 7:09 PM CDT
Nautical Twilight 6:38 AM CDT 7:39 PM CDT
Astronomical Twilight 6:08 AM CDT 8:09 PM CDT
Moon 11:12 AM CDT (10/18) 9:23 PM CDT (10/18)
Length of Visible Light 12h 00m
Length of Day
11h 08m
Waxing Crescent, 14% of the Moon is Illuminated
Oct 18
Waxing Crescent
Oct 21
First Quarter
Oct 29
Full
Nov 6
Last Quarter
Nov 13
New

Hourly Weather History & Observations

Time (CDT) Temp. Dew Point Humidity Pressure Visibility Wind Dir Wind Speed Gust Speed Precip Events Conditions
12:53 AM 51.1 °F 33.1 °F 50% 29.79 in 10.0 mi Calm Calm - N/A   Clear
1:53 AM 52.0 °F 30.9 °F 45% 29.82 in 10.0 mi Calm Calm - N/A   Clear
2:53 AM 52.0 °F 28.0 °F 40% 29.81 in 10.0 mi West 3.5 mph - N/A   Clear
3:53 AM 51.1 °F 28.0 °F 41% 29.82 in 10.0 mi Variable 5.8 mph - N/A   Clear
4:53 AM 50.0 °F 27.0 °F 41% 29.83 in 10.0 mi West 5.8 mph - N/A   Clear
5:53 AM 52.0 °F 26.1 °F 37% 29.85 in 10.0 mi West 8.1 mph - N/A   Clear
6:53 AM 53.1 °F 25.0 °F 34% 29.86 in 10.0 mi Variable 6.9 mph 21.9 mph N/A   Clear
7:53 AM 51.1 °F 26.1 °F 38% 29.87 in 10.0 mi Variable 6.9 mph - N/A   Clear
8:53 AM 55.0 °F 27.0 °F 34% 29.88 in 10.0 mi WNW 11.5 mph 18.4 mph N/A   Clear
9:53 AM 59.0 °F 24.1 °F 26% 29.89 in 10.0 mi WNW 10.4 mph 20.7 mph N/A   Clear
10:53 AM 61.0 °F 24.1 °F 24% 29.89 in 10.0 mi WNW 13.8 mph 27.6 mph N/A   Clear
11:53 AM 62.1 °F 21.9 °F 21% 29.87 in 10.0 mi WNW 10.4 mph 32.2 mph N/A   Clear
12:53 PM 66.0 °F 23.0 °F 20% 29.85 in 10.0 mi WNW 9.2 mph 19.6 mph N/A   Clear
1:53 PM 66.9 °F 21.0 °F 17% 29.83 in 10.0 mi WNW 12.7 mph 25.3 mph N/A   Clear
2:53 PM 68.0 °F 19.9 °F 16% 29.81 in 10.0 mi West 17.3 mph 32.2 mph N/A   Clear
3:53 PM 69.1 °F 23.0 °F 18% 29.80 in 10.0 mi WNW 10.4 mph 21.9 mph N/A   Partly Cloudy
4:53 PM 68.0 °F 21.9 °F 17% 29.80 in 10.0 mi WNW 15.0 mph 25.3 mph N/A   Overcast
5:53 PM 66.0 °F 21.9 °F 19% 29.80 in 6.0 mi WNW 9.2 mph 19.6 mph N/A   Haze
6:53 PM 64.9 °F 21.9 °F 19% 29.81 in 4.0 mi WNW 11.5 mph 20.7 mph N/A   Haze
7:53 PM 64.0 °F 19.9 °F 18% 29.82 in 4.0 mi WNW 9.2 mph 20.7 mph N/A   Haze
8:53 PM 64.0 °F 19.9 °F 18% 29.82 in 4.0 mi West 9.2 mph 21.9 mph N/A   Haze
9:53 PM 62.1 °F 21.0 °F 21% 29.82 in 4.0 mi West 6.9 mph - N/A   Haze
10:53 PM 60.1 °F 21.9 °F 23% 29.82 in 4.0 mi West 6.9 mph - N/A   Haze
11:53 PM 59.0 °F 21.9 °F 24% 29.82 in 5.0 mi West 9.2 mph 16.1 mph N/A   Haze